Dewpoint
71 68 67 69 68 70 69 69 69 69 70 71 71 71 73 72 72 73 73 74 75 76 74 73 75 76 77 76 76 75 74 74 73 73 73 73 73 73 72 72 72 73 73
69 70 69 68 68 69 70 69 69 70 71 71 71 72 71 72 72 73 73 71 74 75 75 73 74 75 75 74 75 75 75 75 74 74 73 73 73 73 73 73 73 73 74
69 69 69 70 69 69 69 68 68 70 71 71 72 72 72 71 71 73 73 74 73 75 75 73 74 76 76 75 75 75 75 75 75 74 74 74 73 74 73 73 73 73 73
68 68 70 70 68 69 68 68 68 70 70 72 72 72 72 71 71 73 72 72 73 73 74 74 75 76 76 76 75 75 75 75 75 74 74 74 74 74 74 73 73 73 73
70 68 69 70 69 69 68 69 69 70 70 71 72 71 70 71 71 69 71 73 73 73 73 75 75 75 75 75 75 74 75 74 74 74 74 74 74 74 73 73 73 73 73
70 70 70 70 70 69 68 70 70 70 70 71 70 70 71 71 71 70 71 72 71 71 71 71 71 73 73 74 73 74 73 73 73 73 74 74 73 73 73 73 73 73 73
68 69 70 70 70 69 69 70 71 70 71 71 68 69 69 70 70 71 71 71 69 70 70 70 70 70 70 71 72 72 72 72 73 72 73 73 72 72 73 73 73 73 72
68 67 69 70 70 69 70 69 70 71 70 71 68 66 64 66 69 70 71 71 71 69 68 68 68 68 68 69 70 71 71 70 71 71 71 71 71 71 72 72 72 72 72
68 67 66 68 70 70 70 69 71 71 69 70 69 66 62 62 65 68 70 71 70 70 68 66 66 66 67 67 68 68 69 69 69 68 68 69 69 69 69 69 70 70 71
67 67 66 66 69 69 69 69 73 71 70 68 69 71 68 66 63 66 68 69 70 66 65 64 64 64 65 65 67 67 67 67 67 67 67 67 66 66 66 66 67 68 69
67 66 66 66 66 69 69 71 72 71 71 69 69 69 68 68 66 64 66 67 69 68 66 64 64 64 64 64 64 65 66 66 65 65 65 65 65 65 65 66 66 66 66
66 66 66 66 67 69 70 72 71 70 70 70 69 68 67 65 64 65 65 66 66 67 68 67 64 63 63 63 64 64 64 64 64 64 63 62 62 61 61 62 63 64 64
69 69 68 69 70 70 71 72 71 71 70 68 66 67 68 67 67 65 65 63 64 67 67 67 64 62 62 62 62 63 64 63 63 63 63 61 60 59 59 59 60 61 61
69 69 69 70 70 72 72 72 71 70 69 66 63 63 63 66 67 66 65 64 65 64 64 61 63 63 61 62 62 64 61 63 62 62 63 62 61 60 59 58 58 58 59
70 70 71 71 71 72 72 69 68 66 64 62 61 61 60 61 65 65 66 66 64 61 58 60 58 62 62 61 61 61 60 62 61 61 63 63 62 60 58 58 58 58 57
71 71 72 72 72 72 69 67 64 64 63 62 60 59 59 59 60 60 61 63 64 61 58 58 57 59 63 60 61 61 61 61 61 62 62 62 61 59 58 58 57 56 55
70 71 71 70 70 69 68 65 63 61 59 58 58 57 57 56 56 57 58 60 62 58 55 57 55 53 61 59 60 60 59 58 59 60 60 61 61 59 58 57 56 55 55
71 71 71 70 70 68 65 63 62 61 59 58 58 58 58 58 57 57 58 58 57 57 55 51 51 52 53 55 58 58 57 59 58 60 58 59 59 59 57 57 56 55 55
71 70 69 68 67 66 64 62 62 61 59 57 57 57 57 56 55 56 57 57 55 53 52 51 52 53 53 55 55 53 57 57 58 61 60 57 58 59 58 57 56 55 55
70 69 68 67 65 63 62 62 61 59 57 54 55 57 56 55 55 55 55 56 53 52 53 52 51 50 51 52 53 50 51 55 52 54 59 56 55 58 59 58 56 55 55
70 69 68 66 64 63 62 59 58 56 52 52 52 51 52 55 57 55 55 54 54 53 51 50 49 46 48 48 48 50 50 51 52 50 54 56 54 53 53 54 51 54 54
68 67 67 65 64 63 63 62 57 51 51 51 54 55 56 57 60 61 59 58 55 52 51 47 44 40 44 46 48 48 49 47 45 47 44 44 49 52 53 52 53 53 54
67 66 66 65 63 63 63 62 57 50 49 52 52 52 52 54 54 55 59 60 59 57 52 41 39 42 44 47 48 47 46 44 42 46 44 43 46 46 51 51 55 54 53
66 65 64 62 61 61 63 61 59 50 49 52 54 56 54 50 48 46 44 45 46 46 44 43 44 45 46 49 49 46 46 46 46 45 46 40 46 44 50 49 53 56 56
65 63 62 60 59 58 61 61 55 52 52 53 56 55 54 54 55 53 44 44 44 46 53 53 52 52 52 54 50 47 46 46 44 44 47 42 44 44 47 49 48 53 54
66 63 61 59 59 55 59 60 57 57 56 55 54 54 55 51 57 56 48 46 45 46 46 46 45 48 49 49 54 47 47 45 46 40 44 41 44 44 40 43 48 50 48
Lifted_Index
-1 -1 -0 -1 -1 -1 -1 -1 -1 -1 -2 -2 -2 -2 -2 -2 -2 -2 -2 -3 -3 -4 -4 -4 -4 -5 -5 -5 -5 -5 -4 -4 -4 -4 -4 -3 -3 -3 -3 -2 -2 -2 -2
-1 -1 -1 -1 -1 -1 -1 -1 -1 -1 -2 -2 -2 -2 -2 -2 -2 -2 -2 -3 -3 -4 -4 -4 -4 -5 -5 -5 -5 -5 -5 -4 -4 -4 -4 -4 -3 -3 -3 -3 -3 -2 -2
-1 -1 -1 -1 -1 -1 -0 0 -0 -1 -1 -2 -2 -2 -2 -2 -2 -2 -2 -2 -3 -4 -4 -3 -3 -4 -5 -5 -5 -5 -5 -5 -4 -4 -4 -4 -4 -4 -4 -3 -3 -3 -3
-1 -1 -1 -1 -1 -0 0 0 -0 -1 -1 -2 -2 -2 -2 -1 -2 -2 -2 -2 -2 -3 -3 -3 -3 -4 -4 -5 -5 -4 -4 -4 -4 -4 -4 -4 -4 -4 -3 -3 -3 -3 -3
-1 -1 -1 -1 -1 -0 0 -0 -1 -1 -2 -2 -2 -2 -1 -1 -1 -2 -2 -2 -2 -1 -2 -2 -3 -3 -4 -4 -4 -3 -4 -4 -3 -3 -3 -3 -3 -3 -3 -3 -3 -3 -3
-1 -1 -1 -1 -1 -0 0 -0 -1 -2 -2 -2 -2 -2 -1 -1 -1 -1 -1 -1 -1 -0 -0 -1 -1 -2 -2 -2 -2 -2 -2 -3 -2 -2 -3 -3 -2 -2 -2 -2 -2 -2 -2
-1 -1 -1 -1 -1 -0 -0 -1 -2 -2 -2 -2 -2 -1 -1 -1 -1 -1 -1 -1 -0 1 0 0 0 0 0 -0 -1 -1 -1 -1 -1 -1 -1 -1 -1 -1 -2 -2 -2 -2 -2
0 -0 -1 -1 -1 -1 -0 -1 -2 -2 -2 -2 -1 -1 -0 -0 -0 -0 -0 -0 0 1 1 1 2 2 2 1 1 1 0 0 0 0 0 0 0 -0 -0 -1 -1 -1 -1
0 0 0 -0 -1 -1 -1 -1 -2 -3 -2 -2 -1 -0 0 0 0 0 0 0 1 1 1 2 2 3 3 3 3 2 2 2 2 2 2 2 2 2 1 1 1 0 -0
1 1 1 1 0 -0 -0 -1 -2 -3 -2 -1 -1 -1 -0 0 1 1 1 1 1 2 2 3 3 4 5 5 5 4 4 4 4 3 3 3 3 3 3 3 3 2 2
1 2 2 2 2 1 -0 -1 -2 -3 -2 -1 -1 -0 -0 0 1 1 1 1 2 2 2 3 5 6 6 6 6 6 6 5 5 5 5 5 5 5 6 5 5 5 4
1 1 2 2 1 1 -1 -2 -3 -2 -1 -1 -0 0 0 1 1 1 1 2 2 2 3 4 6 7 8 7 7 7 7 7 7 7 7 7 7 8 8 8 7 7 6
0 1 1 1 0 -0 -2 -3 -2 -2 -1 0 1 1 1 1 1 1 1 2 2 2 3 4 6 7 8 8 7 7 7 7 8 8 8 8 9 9 9 9 9 9 8
-0 -0 -0 -1 -1 -2 -2 -3 -2 -1 0 1 2 2 2 2 2 2 1 2 2 3 3 4 5 6 7 8 8 8 8 8 8 8 8 8 9 9 9 10 10 10 10
-1 -1 -2 -2 -2 -3 -3 -2 -1 0 1 2 3 3 3 3 3 2 2 2 2 3 4 5 5 6 6 7 8 8 9 9 9 9 9 9 9 9 10 10 11 11 11
-2 -2 -3 -3 -3 -3 -2 -2 0 2 3 4 4 4 4 3 4 4 3 3 3 3 4 5 6 6 6 7 8 8 9 9 10 10 10 10 9 10 11 11 12 12 12
-2 -3 -3 -3 -3 -3 -2 -1 1 3 4 5 6 6 5 5 5 5 5 5 4 3 4 6 7 6 6 6 7 7 8 9 10 10 10 10 10 11 11 12 12 13 13
-2 -3 -3 -3 -2 -2 -1 1 3 4 6 7 8 7 6 6 7 7 6 6 5 4 5 7 9 8 7 6 6 6 7 9 9 10 10 10 11 11 12 12 13 14 14
-2 -2 -2 -2 -1 -0 1 3 5 6 8 9 9 9 8 8 8 8 7 6 6 7 8 9 10 9 8 7 6 6 6 7 8 9 9 10 11 11 12 12 13 14 15
-2 -2 -2 -2 -1 1 3 4 6 8 9 10 10 10 10 9 9 9 7 7 8 9 10 11 10 10 9 8 8 7 7 7 8 9 9 9 10 11 11 12 13 14 15
-2 -2 -1 -1 1 2 4 6 8 9 10 11 11 11 11 10 10 9 9 8 9 10 11 11 10 10 10 10 10 9 9 8 9 9 9 9 10 11 11 12 13 14 14
-2 -2 -1 0 2 4 5 7 8 10 11 12 13 13 12 11 11 10 10 10 10 10 10 11 11 11 12 12 12 11 10 9 9 9 10 11 12 11 11 12 13 14 14
-2 -2 -0 1 3 5 6 7 8 10 13 13 13 13 13 12 12 12 12 12 11 12 12 12 13 13 13 13 12 12 11 10 10 10 11 13 14 13 12 12 13 13 14
-2 -1 0 2 4 5 6 7 8 10 13 13 12 11 12 12 12 13 14 14 14 14 14 14 15 15 14 13 12 12 11 11 11 12 13 15 15 13 12 12 13 13 13
-1 -1 0 2 4 5 6 6 7 10 11 11 10 10 10 11 11 12 14 15 15 15 14 14 14 14 14 13 13 12 12 12 12 13 14 15 15 14 13 13 13 13 13
-1 -1 0 2 4 5 6 6 7 9 10 10 9 9 9 10 11 11 12 14 14 13 13 13 13 13 13 13 13 13 13 12 13 14 15 15 15 14 13 13 13 13 13